OPS 4682 DEB, 38378

Orbit data source: Space-Track

OPS 4682 DEB, 38378 is space debris in LEO originally from a launch on Sat, 03 Apr 1965 UTC launched from the Air Force Western Test Range (AFWTR). Debris objects in space refer to the collection of defunct objects orbiting the Earth. Examples of debris include non-operational satellites, rocket bodies, and fragments generated from explosions, collisions, or faulty payload assembly.

Loading next visibility...
Identifier
38378, 1965-027CF
Orbit
LEO
Country
Flag of USUS
Related business
Manufacturer
Unknown
Mission
Spacecraft
Bus & Motor
Unknown
Mass
Unknown
Launch date (UTC)
1965-04-03 (61 years ago)
Launch vehicle
Unknown
Launch site
Air Force Western Test Range (AFWTR)
Object type
Payload
Rocket body
Debris
Shape & HBR
Unknown shape, 0.1 m
Radar Cross Section
Small (<0.1 m²)

Expand to show TLE details & history
Last TLE update: 23 hours ago

TLE from 23 hours ago
0 OPS 4682 DEB
1 38378U 65027CF  26103.89677073 -.00000439  00000-0 -14110-2 0  9995
2 38378  90.2403 337.9629 0036253 359.9807   0.1310 13.03301577610639
Epoch: 2026-04-13T21:31Z
TLE epoch observation values (Epoch: 2026-04-13T21:31:20.991Z)
Latitude
0.00005°
Longitude
173.04465°
Altitude
1,224.41 km
Speed
7.255 km/s
True Right ascension
22h 31m 51s
True Declination
0° 00' 00"
Sunlit
Object was in daylight at epoch
Visualization orbit readout
Latitude
Unknown
Longitude
Unknown
Altitude
Unknown
Speed
Unknown
Apparent Right ascension
Unknown
Apparent Declination
Unknown
Sunlit
N/A
Visualization observer readout
Local Sidereal Time
03:30:52
Azimuth
Unknown
Elevation
Unknown
Doppler factor
Unknown
Orbital elements
Apogee altitude
1,273.941 km
Perigee altitude
1,218.659 km
Semi-major axis
7,624.437 km
Eccentricity
0.00363
Inclination
90.2403°
RAAN
337.9629°
Arg. of periapsis
359.9807°
True anomaly
0.13195°
Mean anomaly
0.131°
Eccentric anomaly
0.13148°
Mean motion
3.2601 °/min
Orbital period
110.43 mins
BSTAR
-0.001411
Loading maneuver chart data...
Computing Atmospheric mass density...
Loading historical data...
Loading historical data...
Loading historical data...
Loading historical data...
Loading historical data...
Loading historical data...
Loading historical data...

Documentation

Showing up to 5 results
|